EW7868 Weather Reports


Display with metric or nautical units.
time (UTC)temp
F
wind
direction
speed
MPH
gust
MPH
rain 1hr
in
rain 24hr
in
rain mn
in
humidity
%
barometer
mb
20260509180654 73 225 7.0 8.0 0.00 0.00 0.00 45 1002.9
20260509180150 74 332 4.0 7.0 0.00 0.00 0.00 45 1003.0
20260509175646 75 210 2.0 13.0 0.00 0.00 0.00 42 1002.9
20260509175143 75 333 3.0 6.0 0.00 0.00 0.00 45 1003.0
20260509174639 74 337 2.0 5.0 0.00 0.00 0.00 48 1003.0
20260509174134 74 210 3.0 8.0 0.00 0.00 0.00 45 1003.0
20260509173630 74 252 5.0 9.0 0.00 0.00 0.00 44 1003.0
20260509173126 74 270 0.0 6.0 0.00 0.00 0.00 45 1003.1
20260509172623 74 290 2.0 7.0 0.00 0.00 0.00 45 1003.1
20260509172119 74 346 0.0 6.0 0.00 0.00 0.00 50 1002.9
20260509171615 73 206 9.0 10.0 0.00 0.00 0.00 48 1003.2
20260509171111 73 230 5.0 5.0 0.00 0.00 0.00 50 1003.1
20260509170608 72 203 5.0 7.0 0.00 0.00 0.00 53 1003.0
20260509170104 72 261 2.0 7.0 0.00 0.00 0.00 56 1003.0
20260509165602 71 279 0.0 6.0 0.00 0.00 0.00 55 1003.2
20260509165058 70 200 5.0 10.0 0.00 0.00 0.00 56 1003.1
20260509164554 71 273 0.0 3.0 0.00 0.00 0.00 59 1003.0
20260509164050 70 74 2.0 7.0 0.00 0.00 0.00 60 1003.0
20260509163548 69 209 1.0 7.0 0.00 0.00 0.00 62 1003.4
20260509163044 68 189 6.0 12.0 0.00 0.00 0.00 61 1003.0
20260509162541 68 258 3.0 11.0 0.00 0.00 0.00 64 1003.2
20260509162036 68 200 7.0 9.0 0.00 0.00 0.00 66 1003.4
20260509161533 68 201 8.0 8.0 0.00 0.00 0.00 67 1003.1
20260509161028 67 204 6.0 8.0 0.00 0.00 0.00 65 1003.2
20260509160524 68 196 0.0 7.0 0.00 0.00 0.00 68 1003.4
20260509160020 67 189 3.0 5.0 0.00 0.00 0.00 68 1003.2
20260509155516 67 195 5.0 7.0 0.00 0.00 0.00 70 1003.2
20260509155012 66 173 1.0 7.0 0.00 0.00 0.00 71 1003.2
20260509154509 66 198 6.0 9.0 0.00 0.00 0.00 71 1003.3
20260509154007 66 194 5.0 8.0 0.00 0.00 0.00 72 1003.4
20260509153503 66 193 6.0 9.0 0.00 0.00 0.00 73 1003.6
20260509153000 66 198 5.0 5.0 0.00 0.00 0.00 74 1003.5
20260509152455 65 194 5.0 7.0 0.00 0.00 0.00 75 1003.5
20260509151952 64 233 0.0 12.0 0.00 0.00 0.00 76 1003.8
20260509151449 65 193 7.0 8.0 0.00 0.00 0.00 75 1003.8
20260509150947 65 213 0.0 7.0 0.00 0.00 0.00 76 1003.5
20260509150444 64 249 0.0 7.0 0.00 0.00 0.00 76 1003.6
20260509145942 64 225 2.0 7.0 0.00 0.00 0.00 76 1003.5
20260509145437 63 238 3.0 6.0 0.00 0.00 0.00 77 1003.4
20260509144932 63 171 0.0 9.0 0.00 0.00 0.00 76 1003.4
20260509144430 64 206 2.0 4.0 0.00 0.00 0.00 77 1003.6
20260509143927 62 203 1.0 6.0 0.00 0.00 0.00 78 1003.5
20260509143424 62 208 4.0 6.0 0.00 0.00 0.00 79 1003.6
20260509142920 62 208 4.0 9.0 0.00 0.00 0.00 79 1003.4
20260509142417 62 240 8.0 8.0 0.00 0.00 0.00 77 1003.6
20260509141912 63 305 3.0 4.0 0.00 0.00 0.00 78 1003.3
20260509141410 62 258 5.0 12.0 0.00 0.00 0.00 78 1003.3
20260509140906 62 196 11.0 11.0 0.00 0.00 0.00 80 1003.6
20260509140403 62 63 0.0 9.0 0.00 0.00 0.00 83 1003.3
20260509135901 61 69 1.0 8.0 0.00 0.00 0.00 83 1003.2
20260509135358 60 201 0.0 9.0 0.00 0.00 0.00 85 1003.2
20260509134855 59 204 4.0 9.0 0.00 0.00 0.00 85 1003.2
20260509134353 59 194 0.0 7.0 0.00 0.00 0.00 86 1003.3
20260509133849 59 183 2.0 11.0 0.00 0.00 0.00 85 1003.4
20260509133346 59 197 0.0 9.0 0.00 0.00 0.00 86 1003.2
20260509132845 58 194 4.0 11.0 0.00 0.00 0.00 88 1003.4
20260509132343 58 212 2.0 7.0 0.00 0.00 0.00 88 1003.3
20260509131840 58 165 3.0 7.0 0.00 0.00 0.00 89 1003.4
20260509131336 56 197 3.0 9.0 0.00 0.00 0.00 91 1003.3
20260509130833 56 201 3.0 6.0 0.00 0.00 0.00 91 1003.6
20260509130328 55 203 3.0 9.0 0.00 0.00 0.00 93 1003.5
20260509125825 55 233 3.0 10.0 0.00 0.00 0.00 94 1003.5
20260509125322 54 214 3.0 9.0 0.00 0.00 0.00 96 1003.6
20260509124818 53 196 5.0 7.0 0.00 0.00 0.00 96 1003.5
20260509124315 53 203 4.0 8.0 0.00 0.00 0.00 97 1003.5
20260509123814 53 190 4.0 6.0 0.00 0.00 0.00 98 1003.6
20260509123310 53 196 7.0 9.0 0.00 0.00 0.00 98 1003.7
20260509122805 53 207 4.0 7.0 0.00 0.00 0.00 99 1003.5
20260509122305 52 196 3.0 6.0 0.00 0.00 0.00 99 1003.6
20260509121759 51 195 3.0 7.0 0.00 0.00 0.00 99 1003.6
20260509121257 51 203 5.0 6.0 0.00 0.00 0.00 99 1003.5
20260509120755 51 188 6.0 9.0 0.00 0.00 0.00 99 1003.4
20260509120252 51 187 5.0 5.0 0.00 0.00 0.00 99 1003.6
20260509115751 51 192 5.0 7.0 0.00 0.00 0.00 99 1003.4
20260509115247 50 198 2.0 4.0 0.00 0.00 0.00 99 1003.3
20260509114745 50 219 3.0 6.0 0.00 0.00 0.00 99 1003.1
20260509114244 50 106 2.0 8.0 0.00 0.00 0.00 99 1003.1
20260509113742 50 257 2.0 7.0 0.00 0.00 0.00 99 1003.0
20260509113239 50 198 2.0 7.0 0.00 0.00 0.00 99 1002.4
20260509112736 50 198 6.0 6.0 0.00 0.00 0.00 99 1002.3
20260509112233 50 212 3.0 6.0 0.00 0.00 0.00 99 1002.5
20260509111730 50 192 2.0 7.0 0.00 0.00 0.00 99 1002.6
20260509111226 50 192 5.0 7.0 0.00 0.00 0.00 99 1002.4
20260509110724 50 195 3.0 8.0 0.00 0.00 0.00 99 1002.3
20260509110221 50 193 5.0 7.0 0.00 0.00 0.00 99 1002.4
20260509105719 50 198 2.0 8.0 0.00 0.00 0.00 99 1002.4
20260509105216 50 190 2.0 6.0 0.00 0.00 0.00 99 1002.5
20260509104713 50 203 1.0 7.0 0.00 0.00 0.00 99 1002.6
20260509104210 50 194 3.0 5.0 0.00 0.00 0.00 99 1002.5
20260509103708 50 190 3.0 5.0 0.00 0.00 0.00 99 1002.6
20260509103205 50 199 2.0 6.0 0.00 0.00 0.00 99 1002.9
20260509102703 50 197 3.0 5.0 0.00 0.00 0.00 99 1002.6
20260509102200 50 195 3.0 5.0 0.00 0.00 0.00 99 1002.9
20260509101656 50 195 4.0 6.0 0.00 0.00 0.00 99 1002.9
20260509101153 50 105 1.0 6.0 0.00 0.00 0.00 98 1003.2
20260509100650 50 205 3.0 4.0 0.00 0.00 0.00 98 1003.0
20260509100147 50 198 3.0 5.0 0.00 0.00 0.00 98 1003.2
20260509095644 50 193 5.0 5.0 0.00 0.00 0.00 98 1002.9
20260509095141 50 187 2.0 6.0 0.00 0.00 0.00 98 1003.3
20260509094637 50 200 3.0 4.0 0.00 0.00 0.00 98 1003.2
20260509094134 50 206 2.0 4.0 0.00 0.00 0.00 98 1003.4
20260509093633 50 199 6.0 7.0 0.00 0.00 0.00 98 1003.2
20260509093130 50 189 0.0 5.0 0.00 0.00 0.00 98 1003.4
20260509092627 50 199 2.0 4.0 0.00 0.00 0.00 98 1003.3
20260509092126 50 190 3.0 4.0 0.00 0.00 0.00 98 1003.4
20260509091624 50 194 0.0 5.0 0.00 0.00 0.00 98 1003.4
20260509091119 50 192 2.0 4.0 0.00 0.00 0.00 98 1003.4
20260509090617 50 186 3.0 3.0 0.00 0.00 0.00 98 1003.3
20260509090115 50 198 2.0 4.0 0.00 0.00 0.00 98 1003.5
20260509085612 50 183 2.0 4.0 0.00 0.00 0.00 98 1003.3
20260509085108 50 192 3.0 3.0 0.00 0.00 0.00 98 1003.3
20260509084605 50 188 2.0 3.0 0.00 0.00 0.00 98 1003.4
20260509084102 50 200 1.0 3.0 0.00 0.00 0.00 98 1003.3
20260509083559 50 183 2.0 4.0 0.00 0.00 0.00 98 1003.4
20260509083055 50 192 2.0 4.0 0.00 0.00 0.00 97 1003.3
20260509082553 50 198 2.0 5.0 0.00 0.00 0.00 98 1003.3
20260509082050 50 209 0.0 4.0 0.00 0.00 0.00 97 1003.2
20260509081547 50 193 3.0 5.0 0.00 0.00 0.00 97 1003.5
20260509081044 50 195 2.0 5.0 0.00 0.00 0.00 97 1003.3
20260509080542 50 193 5.0 5.0 0.00 0.00 0.00 97 1003.1
20260509080040 50 190 4.0 4.0 0.00 0.00 0.00 97 1003.3
20260509075537 50 194 1.0 4.0 0.00 0.00 0.00 97 1003.5
20260509075035 50 202 3.0 3.0 0.00 0.00 0.00 97 1003.6
20260509074532 50 180 0.0 4.0 0.00 0.00 0.00 97 1003.5
20260509074028 50 191 1.0 4.0 0.00 0.00 0.00 97 1003.6
20260509073525 50 203 1.0 3.0 0.00 0.00 0.00 97 1003.5
20260509073021 50 192 2.0 3.0 0.00 0.00 0.00 97 1003.7
20260509072518 50 204 0.0 5.0 0.00 0.00 0.00 96 1003.7
20260509072015 50 197 2.0 3.0 0.00 0.00 0.00 96 1003.6
20260509071511 50 195 0.0 3.0 0.00 0.00 0.00 96 1003.8
20260509071009 50 203 0.0 5.0 0.00 0.00 0.00 96 1004.1
20260509070506 51 184 2.0 4.0 0.00 0.00 0.00 96 1003.9
20260509070002 51 204 0.0 4.0 0.00 0.00 0.00 96 1003.8
20260509065457 51 184 2.0 3.0 0.00 0.00 0.00 95 1004.0
20260509064954 51 190 2.0 4.0 0.00 0.00 0.00 95 1003.9
20260509064452 51 191 1.0 2.0 0.00 0.00 0.00 95 1004.0
20260509063950 51 184 0.0 3.0 0.00 0.00 0.00 94 1004.2
20260509063445 51 196 2.0 4.0 0.00 0.00 0.00 94 1004.2
20260509062942 52 194 1.0 4.0 0.00 0.00 0.00 94 1004.2
20260509062439 52 209 0.0 5.0 0.00 0.00 0.00 94 1004.2
20260509061937 51 189 2.0 5.0 0.00 0.00 0.00 94 1004.2
20260509061434 51 200 3.0 3.0 0.00 0.00 0.00 94 1004.0
20260509060931 51 184 2.0 3.0 0.00 0.00 0.00 94 1004.2
20260509060429 51 180 3.0 3.0 0.00 0.00 0.00 94 1004.3
20260509055923 51 194 0.0 4.0 0.00 0.00 0.00 94 1004.3
20260509055419 51 196 0.0 4.0 0.00 0.00 0.00 93 1004.3
20260509054916 52 194 0.0 3.0 0.00 0.00 0.00 93 1004.3
20260509054413 52 201 2.0 3.0 0.00 0.00 0.00 92 1004.6
20260509053911 52 188 0.0 5.0 0.00 0.00 0.00 92 1004.5
20260509053409 52 197 3.0 5.0 0.00 0.00 0.00 92 1004.6
20260509052906 52 198 3.0 5.0 0.00 0.00 0.00 92 1004.6
20260509052403 53 208 2.0 3.0 0.00 0.00 0.00 93 1004.4
20260509051901 53 208 3.0 5.0 0.00 0.00 0.00 92 1004.6
20260509051359 53 192 0.0 3.0 0.00 0.00 0.00 92 1004.4
20260509050855 53 212 1.0 4.0 0.00 0.00 0.00 92 1004.6
20260509050352 53 203 2.0 3.0 0.00 0.00 0.00 91 1004.3
20260509045849 53 199 2.0 3.0 0.00 0.06 0.06 91 1004.5
20260509045346 53 197 3.0 4.0 0.00 0.06 0.06 91 1004.4
20260509044843 53 193 5.0 5.0 0.00 0.06 0.06 91 1004.4
20260509044341 54 183 3.0 5.0 0.00 0.06 0.06 91 1004.7
20260509043837 54 199 5.0 5.0 0.00 0.06 0.06 91 1004.6
20260509043333 54 196 3.0 5.0 0.00 0.06 0.06 91 1004.7
20260509042829 54 202 5.0 6.0 0.00 0.06 0.06 91 1004.6
20260509042326 54 214 2.0 6.0 0.00 0.06 0.06 91 1004.5
20260509041823 54 210 5.0 5.0 0.00 0.06 0.06 91 1004.6
20260509041320 54 196 3.0 5.0 0.00 0.06 0.06 91 1004.7
20260509040818 54 200 3.0 5.0 0.00 0.06 0.06 91 1004.8
20260509040315 54 197 4.0 4.0 0.00 0.06 0.06 90 1004.8
20260509035812 55 202 3.0 5.0 0.00 0.06 0.06 90 1004.8
20260509035309 55 192 4.0 5.0 0.00 0.06 0.06 90 1004.9
20260509034805 55 186 1.0 5.0 0.00 0.06 0.06 89 1005.1
20260509034303 55 198 3.0 5.0 0.00 0.06 0.06 88 1005.3
20260509033800 55 203 1.0 5.0 0.00 0.06 0.06 88 1005.2
20260509033257 55 201 3.0 6.0 0.00 0.06 0.06 88 1004.9
20260509032754 56 188 2.0 5.0 0.00 0.06 0.06 87 1004.9
20260509032251 55 196 2.0 5.0 0.00 0.06 0.06 87 1005.2
20260509031748 56 203 0.0 4.0 0.00 0.06 0.06 86 1005.0
20260509031245 56 192 4.0 5.0 0.00 0.06 0.06 86 1004.9
20260509030743 56 201 3.0 4.0 0.00 0.06 0.06 85 1004.9
20260509030241 56 201 2.0 5.0 0.00 0.06 0.06 85 1004.8
20260509025738 57 195 3.0 4.0 0.00 0.06 0.06 84 1004.8
20260509025233 57 201 3.0 4.0 0.00 0.06 0.06 83 1004.9
20260509024728 57 185 2.0 5.0 0.00 0.06 0.06 82 1004.8
20260509024224 57 180 2.0 5.0 0.00 0.06 0.06 81 1005.0
20260509023722 57 200 6.0 6.0 0.00 0.06 0.06 79 1005.0
20260509023219 57 197 3.0 6.0 0.00 0.06 0.06 79 1005.0
20260509022715 58 201 3.0 5.0 0.00 0.06 0.06 78 1004.8
20260509022213 58 194 2.0 4.0 0.00 0.06 0.06 77 1004.9
20260509021710 58 190 3.0 3.0 0.00 0.06 0.06 76 1005.0
20260509021207 58 192 2.0 4.0 0.00 0.06 0.06 76 1004.6
20260509020705 58 197 2.0 6.0 0.00 0.06 0.06 75 1004.8
20260509020202 58 203 1.0 5.0 0.00 0.06 0.06 75 1004.8
20260509015700 59 192 4.0 4.0 0.00 0.06 0.06 75 1004.8
20260509015158 59 198 3.0 6.0 0.00 0.06 0.06 75 1004.8
20260509014654 59 188 4.0 4.0 0.00 0.06 0.06 76 1004.5
20260509014150 59 228 2.0 4.0 0.00 0.06 0.06 76 1004.6
20260509013648 59 194 5.0 6.0 0.00 0.06 0.06 76 1004.5
20260509013143 59 197 3.0 4.0 0.00 0.06 0.06 76 1004.4
20260509012640 60 206 1.0 5.0 0.00 0.06 0.06 75 1004.4
20260509012137 60 259 2.0 7.0 0.00 0.06 0.06 75 1004.5
20260509011635 60 214 2.0 5.0 0.00 0.06 0.06 74 1004.5
20260509011132 60 193 3.0 5.0 0.00 0.06 0.06 74 1004.5
20260509010630 61 195 3.0 7.0 0.00 0.06 0.06 73 1004.3
20260509010126 61 196 7.0 7.0 0.00 0.06 0.06 73 1004.5
20260509005624 61 197 6.0 9.0 0.00 0.06 0.06 71 1004.6
20260509005120 62 196 3.0 12.0 0.00 0.06 0.06 71 1004.9
20260509004616 62 197 6.0 8.0 0.00 0.06 0.06 70 1004.3
20260509004113 62 199 7.0 7.0 0.00 0.06 0.06 68 1004.6
20260509003612 63 198 2.0 3.0 0.00 0.06 0.06 67 1004.6
20260509003108 63 352 0.0 4.0 0.00 0.06 0.06 65 1004.5
20260509002606 64 197 3.0 3.0 0.00 0.06 0.06 62 1004.4
20260509002103 64 191 4.0 7.0 0.00 0.06 0.06 60 1004.5
20260509001601 64 197 2.0 3.0 0.00 0.06 0.06 57 1004.4
20260509001056 64 184 2.0 3.0 0.00 0.06 0.06 54 1004.4
20260509000555 65 83 0.0 5.0 0.00 0.06 0.06 53 1004.4
20260509000050 66 75 1.0 3.0 0.00 0.06 0.06 55 1004.6
20260508235548 66 270 0.0 4.0 0.00 0.06 0.06 55 1004.5
20260508235044 67 209 2.0 5.0 0.00 0.06 0.06 54 1004.5
20260508234542 68 193 3.0 4.0 0.00 0.06 0.06 52 1004.5
20260508234038 68 214 0.0 12.0 0.00 0.06 0.06 52 1004.5
20260508233538 68 220 0.0 8.0 0.00 0.06 0.06 52 1004.7
20260508233035 68 195 0.0 5.0 0.00 0.06 0.06 54 1004.5
20260508232532 68 257 1.0 7.0 0.00 0.06 0.06 55 1004.4
20260508232029 67 255 1.0 5.0 0.00 0.06 0.06 56 1004.4
20260508231526 67 203 4.0 10.0 0.00 0.06 0.06 56 1004.4
20260508231023 68 237 3.0 5.0 0.00 0.06 0.06 55 1004.6
20260508230520 68 187 5.0 8.0 0.00 0.06 0.06 54 1004.5
20260508230017 67 195 4.0 5.0 0.00 0.06 0.06 55 1004.6
20260508225514 67 180 1.0 6.0 0.00 0.06 0.06 55 1004.6
20260508225010 68 198 3.0 7.0 0.00 0.06 0.06 54 1004.6
20260508224509 68 192 7.0 7.0 0.00 0.06 0.06 53 1004.8
20260508224005 68 203 1.0 4.0 0.00 0.06 0.06 55 1004.4
20260508223503 68 198 3.0 9.0 0.00 0.06 0.06 54 1004.8
20260508223000 68 203 4.0 9.0 0.00 0.06 0.06 54 1004.8
20260508222458 68 201 5.0 7.0 0.00 0.06 0.06 52 1004.6
20260508221954 69 190 3.0 9.0 0.00 0.06 0.06 51 1004.6
20260508221450 70 177 3.0 7.0 0.00 0.06 0.06 50 1004.6
20260508220946 69 220 3.0 9.0 0.00 0.06 0.06 51 1004.7
20260508220443 69 202 2.0 7.0 0.00 0.06 0.06 50 1004.7
20260508215939 68 199 4.0 9.0 0.00 0.06 0.06 51 1004.9
20260508215437 69 207 7.0 7.0 0.00 0.06 0.06 49 1004.8
20260508214933 70 217 0.0 5.0 0.00 0.06 0.06 55 1004.7
20260508214431 70 203 6.0 9.0 0.00 0.06 0.06 53 1004.8
20260508213926 70 249 0.0 7.0 0.00 0.06 0.06 54 1004.8
20260508213424 70 205 4.0 6.0 0.00 0.06 0.06 52 1004.7
20260508212919 69 201 5.0 10.0 0.00 0.06 0.06 51 1004.9
20260508212416 68 193 7.0 8.0 0.00 0.06 0.06 54 1005.1
20260508211912 70 206 4.0 5.0 0.00 0.06 0.06 55 1005.0
20260508211408 69 216 4.0 10.0 0.00 0.06 0.06 56 1005.1
20260508210906 69 199 9.0 11.0 0.00 0.06 0.06 55 1005.0
20260508210402 70 57 0.0 4.0 0.00 0.06 0.06 58 1005.1
20260508205858 69 205 6.0 8.0 0.00 0.06 0.06 57 1005.2
20260508205355 70 220 5.0 7.0 0.00 0.06 0.06 60 1005.1
20260508204851 69 196 5.0 11.0 0.00 0.06 0.06 59 1005.3
20260508204349 70 206 3.0 7.0 0.00 0.06 0.06 59 1005.1
20260508203844 70 196 2.0 4.0 0.00 0.06 0.06 61 1005.3
20260508203340 68 210 2.0 7.0 0.00 0.06 0.06 59 1005.5
20260508202836 68 198 5.0 5.0 0.00 0.06 0.06 62 1005.5
20260508202334 68 194 5.0 6.0 0.00 0.06 0.06 60 1005.6
20260508201831 68 203 0.0 5.0 0.00 0.06 0.06 60 1005.6
20260508201328 68 212 3.0 3.0 0.00 0.06 0.06 61 1005.8
20260508200824 67 279 0.0 6.0 0.00 0.06 0.06 63 1006.0
20260508200321 66 201 2.0 3.0 0.00 0.06 0.06 65 1005.9
20260508195817 67 189 4.0 6.0 0.00 0.06 0.06 64 1005.9
20260508195314 65 204 4.0 7.0 0.00 0.06 0.06 63 1006.2
20260508194810 66 90 1.0 5.0 0.00 0.06 0.06 65 1006.3
20260508194308 65 202 6.0 8.0 0.00 0.06 0.06 62 1006.2
20260508193804 66 334 0.0 7.0 0.00 0.06 0.06 64 1006.3
20260508193301 67 305 2.0 5.0 0.00 0.06 0.06 64 1006.2
20260508192757 67 4 0.0 5.0 0.00 0.06 0.06 61 1006.3
20260508192254 67 184 2.0 5.0 0.00 0.06 0.06 61 1006.3
20260508191752 66 210 4.0 5.0 0.00 0.06 0.06 61 1006.5
20260508191249 66 208 3.0 6.0 0.00 0.06 0.06 60 1006.6
20260508190746 67 78 4.0 5.0 0.00 0.06 0.06 60 1006.3
20260508190242 66 157 1.0 6.0 0.00 0.06 0.06 62 1006.3
20260508185738 66 187 0.0 9.0 0.00 0.06 0.06 64 1006.7
20260508185236 66 250 2.0 4.0 0.00 0.06 0.06 61 1006.5
20260508184733 66 192 4.0 4.0 0.00 0.06 0.06 62 1006.5
20260508184230 66 63 0.0 5.0 0.00 0.06 0.06 63 1006.6
20260508183727 67 200 3.0 4.0 0.00 0.06 0.06 65 1006.7
20260508183223 67 251 0.0 6.0 0.00 0.06 0.06 63 1006.6
20260508182719 66 352 0.0 4.0 0.00 0.06 0.06 61 1006.8
20260508182216 66 184 2.0 5.0 0.00 0.06 0.06 65 1007.1
20260508181712 65 225 3.0 4.0 0.00 0.06 0.06 67 1007.2
20260508181209 65 90 0.0 6.0 0.00 0.06 0.06 66 1007.1